N1NCB-3 Weather Reports


time (UTC)temp
C
wind
direction
speed
KPH
gust
KPH
rain 1hr
cm
rain 24hr
cm
rain mn
cm
humidity
%
barometer
mb
20260508040110 6 22 0.0 0.0 0.00 0.00 0.00 64 1003.7
20260508035610 6 22 0.0 0.0 0.00 0.00 0.00 64 1003.7
20260508035110 6 45 0.0 0.0 0.00 0.00 0.00 64 1003.7
20260508034610 6 90 0.0 0.0 0.00 0.00 0.00 64 1003.7
20260508034110 6 90 0.0 0.0 0.00 0.00 0.00 64 1004.0
20260508033610 7 90 0.0 0.0 0.00 0.00 0.00 63 1003.7
20260508033110 7 90 0.0 0.0 0.00 0.00 0.00 63 1003.7
20260508032610 7 90 0.0 0.0 0.00 0.00 0.00 63 1003.7
20260508032110 7 90 0.0 0.0 0.00 0.00 0.00 64 1003.7
20260508031610 7 90 0.0 0.0 0.00 0.00 0.00 63 1003.7
20260508031110 7 90 0.0 0.0 0.00 0.00 0.00 63 1003.7
20260508030610 7 90 0.0 0.0 0.00 0.00 0.00 63 1003.7
20260508030110 7 90 0.0 0.0 0.00 0.00 0.00 63 1003.7
20260508025610 7 90 0.0 0.0 0.00 0.00 0.00 63 1003.7
20260508025110 7 90 0.0 0.0 0.00 0.00 0.00 62 1003.7
20260508024610 8 90 0.0 0.0 0.00 0.00 0.00 63 1003.7
20260508024110 8 90 0.0 0.0 0.00 0.00 0.00 63 1003.7
20260508023610 8 67 0.0 0.0 0.00 0.00 0.00 63 1003.7
20260508023110 8 135 0.0 0.0 0.00 0.00 0.00 63 1003.7
20260508022610 8 135 0.0 0.0 0.00 0.00 0.00 63 1003.7
20260508022110 8 157 0.0 0.0 0.00 0.00 0.00 63 1003.7
20260508021610 8 315 0.0 0.0 0.00 0.00 0.00 62 1003.7
20260508021110 8 337 0.0 0.0 0.00 0.00 0.00 60 1003.7
20260508020610 8 0 0.0 0.0 0.00 0.00 0.00 62 1003.3
20260508020110 8 45 0.0 0.0 0.00 0.00 0.00 63 1003.3
20260508015610 8 45 0.0 0.0 0.00 0.00 0.00 64 1003.3
20260508015110 8 22 0.0 0.0 0.00 0.00 0.00 64 1003.3
20260508014610 8 22 0.0 0.0 0.00 0.00 0.00 64 1003.0
20260508014110 9 22 0.0 0.0 0.00 0.00 0.00 64 1003.0
20260508013610 9 22 0.0 0.0 0.00 0.00 0.00 63 1003.0
20260508013110 9 22 0.0 0.0 0.00 0.00 0.00 63 1003.0
20260508012610 10 67 0.0 0.0 0.00 0.00 0.00 62 1003.0
20260508012110 10 67 0.0 0.0 0.00 0.00 0.00 61 1003.0
20260508011610 10 135 0.0 0.0 0.00 0.00 0.00 61 1003.0
20260508011110 10 135 0.0 0.0 0.00 0.00 0.00 60 1003.0
20260508010610 10 292 0.0 0.0 0.00 0.00 0.00 59 1002.7
20260508010110 10 45 0.0 0.0 0.00 0.00 0.00 59 1002.7
20260508005610 10 22 0.0 0.0 0.00 0.00 0.00 59 1002.7
20260508005110 10 67 0.0 0.0 0.00 0.00 0.00 60 1002.7
20260508004610 10 157 0.0 0.0 0.00 0.00 0.00 59 1002.3
20260508004110 10 135 0.0 0.0 0.00 0.00 0.00 58 1002.3
20260508003610 11 202 0.0 0.0 0.00 0.00 0.00 58 1002.0
20260508003110 11 157 0.0 0.0 0.00 0.00 0.00 58 1002.0
20260508002610 11 157 0.0 0.0 0.00 0.00 0.00 57 1002.0
20260508002110 11 45 0.0 0.0 0.00 0.00 0.00 56 1001.6
20260508001610 11 180 0.0 0.0 0.00 0.00 0.00 55 1001.6
20260508001110 12 225 0.0 0.0 0.00 0.00 0.00 56 1001.6
20260508000610 12 0 0.0 0.0 0.00 0.00 0.00 55 1001.6
20260508000110 12 67 0.0 0.0 0.00 0.00 0.00 54 1001.6
20260507235610 12 67 0.0 0.0 0.00 0.00 0.00 54 1001.6
20260507235110 12 45 0.0 0.0 0.00 0.00 0.00 53 1001.6
20260507234610 13 22 0.0 0.0 0.00 0.00 0.00 51 1001.6
20260507234110 13 315 0.0 0.0 0.00 0.00 0.00 51 1001.6
20260507233610 13 292 0.0 0.0 0.00 0.00 0.00 49 1001.3
20260507233110 14 225 0.0 0.0 0.00 0.00 0.00 47 1001.3
20260507232612 14 270 0.0 0.0 0.00 0.00 0.00 49 1001.3
20260507232110 15 247 0.0 0.0 0.00 0.00 0.00 47 1001.3
20260507231610 15 247 0.0 0.0 0.00 0.00 0.00 45 1001.0
20260507231110 16 135 0.0 1.6 0.00 0.00 0.00 43 1001.0
20260507230610 16 157 1.6 1.6 0.00 0.00 0.00 44 1001.0
20260507230110 16 157 0.0 0.0 0.00 0.00 0.00 43 1001.0
20260507225610 16 157 0.0 0.0 0.00 0.00 0.00 39 1001.0
20260507225110 17 225 0.0 0.0 0.00 0.00 0.00 39 1001.0
20260507224610 17 112 0.0 0.0 0.00 0.00 0.00 38 1000.6
20260507224110 18 157 0.0 0.0 0.00 0.00 0.00 37 1000.6
20260507223610 19 157 0.0 0.0 0.00 0.00 0.00 32 1000.6
20260507223110 20 157 0.0 1.6 0.00 0.00 0.00 31 1000.6
20260507222611 20 157 1.6 1.6 0.00 0.00 0.00 30 1000.6
20260507222111 22 157 1.6 1.6 0.00 0.00 0.00 29 1000.6
20260507221611 25 180 0.0 0.0 0.00 0.00 0.00 27 1000.3
20260507221111 26 157 0.0 1.6 0.00 0.00 0.00 26 1000.3
20260507220611 26 112 0.0 0.0 0.00 0.00 0.00 24 1000.3
20260507220111 30 90 0.0 0.0 0.00 0.00 0.00 22 1000.3
20260507215611 31 135 0.0 4.8 0.00 0.00 0.00 22 1000.3
20260507215111 32 157 0.0 3.2 0.00 0.00 0.00 24 1000.3
20260507214611 32 202 0.0 0.0 0.00 0.00 0.00 24 1000.3
20260507214111 31 112 0.0 3.2 0.00 0.00 0.00 25 1000.3
20260507213611 30 157 0.0 0.0 0.00 0.00 0.00 24 1000.3
20260507213111 29 202 0.0 0.0 0.00 0.00 0.00 25 1000.3
20260507212611 27 135 0.0 3.2 0.00 0.00 0.00 27 1000.3
20260507212111 27 157 1.6 1.6 0.00 0.00 0.00 27 1000.3
20260507211611 27 180 0.0 0.0 0.00 0.00 0.00 26 1000.6
20260507211111 25 180 0.0 4.8 0.00 0.00 0.00 27 1000.3
20260507210611 27 180 4.8 4.8 0.00 0.00 0.00 25 1000.3
20260507210111 28 90 4.8 6.4 0.00 0.00 0.00 25 1000.3
20260507205611 29 180 6.4 6.4 0.00 0.00 0.00 25 1000.3
20260507205111 30 157 3.2 4.8 0.00 0.00 0.00 26 1000.3
20260507204611 28 247 3.2 8.0 0.00 0.00 0.00 26 1000.0
20260507204111 28 90 8.0 8.0 0.00 0.00 0.00 26 1000.0
20260507203611 27 135 0.0 1.6 0.00 0.00 0.00 27 1000.0
20260507203111 27 270 0.0 0.0 0.00 0.00 0.00 24 1000.0
20260507202611 27 202 0.0 4.8 0.00 0.00 0.00 27 1000.0
20260507202111 27 225 0.0 0.0 0.00 0.00 0.00 28 1000.0
20260507201611 26 157 0.0 6.4 0.00 0.00 0.00 28 1000.0
20260507201111 26 157 6.4 6.4 0.00 0.00 0.00 29 1000.0
20260507200611 23 157 0.0 0.0 0.00 0.00 0.00 38 1000.0
20260507200111 23 247 0.0 0.0 0.00 0.00 0.00 38 1000.0
20260507195611 22 135 0.0 8.0 0.00 0.00 0.00 38 1000.0
20260507195111 19 247 6.4 8.0 0.00 0.00 0.00 40 1000.0
20260507194611 18 225 8.0 9.7 0.00 0.00 0.00 44 1000.0
20260507194111 17 247 4.8 4.8 0.00 0.00 0.00 43 1000.0
20260507193611 17 202 4.8 9.7 0.00 0.00 0.00 44 1000.3
20260507193111 17 157 1.6 3.2 0.00 0.00 0.00 48 1000.3
20260507192611 17 157 0.0 0.0 0.00 0.00 0.00 48 1000.3
20260507192111 17 180 0.0 3.2 0.00 0.00 0.00 57 1000.3
20260507191611 17 157 1.6 1.6 0.00 0.00 0.00 59 1000.3
20260507191111 17 202 1.6 4.8 0.00 0.00 0.00 57 1000.3
20260507190611 17 202 4.8 4.8 0.00 0.00 0.00 58 1000.3
20260507190111 17 202 0.0 0.0 0.00 0.00 0.00 60 1000.3
20260507185611 17 202 0.0 1.6 0.00 0.00 0.00 58 1000.3
20260507185111 17 180 0.0 8.0 0.00 0.00 0.00 58 1000.6
20260507184611 17 292 0.0 0.0 0.00 0.00 0.00 60 1000.6
20260507184111 17 135 0.0 4.8 0.00 0.00 0.00 64 1000.6
20260507183611 16 180 4.8 4.8 0.00 0.00 0.00 64 1000.6
20260507183130 16 315 0.0 9.7 0.00 0.00 0.00 64 1000.6
20260507162616 15 67 0.0 1.6 0.00 0.00 0.00 73 1001.6
20260507162112 15 157 1.6 3.2 0.00 0.00 0.00 74 1001.6
20260507160111 13 157 0.0 1.6 0.00 0.00 0.00 74 1002.0
20260507155611 13 225 1.6 1.6 0.00 0.00 0.00 75 1002.0
20260507155111 13 202 1.6 1.6 0.00 0.00 0.00 74 1002.0
20260507154613 13 247 0.0 0.0 0.00 0.00 0.00 75 1002.0
20260507153112 13 0 1.6 1.6 0.00 0.00 0.00 76 1002.0
20260507152613 13 292 0.0 1.6 0.00 0.00 0.00 74 1002.0
20260507152115 13 157 1.6 1.6 0.00 0.00 0.00 77 1002.0
20260507151613 13 180 0.0 4.8 0.00 0.00 0.00 75 1002.0
20260507150611 13 270 0.0 4.8 0.00 0.00 0.00 75 1002.3
20260507150111 12 157 4.8 4.8 0.00 0.00 0.00 75 1002.0
20260507145112 12 157 0.0 3.2 0.00 0.00 0.00 78 1002.3
20260507144616 12 180 3.2 3.2 0.00 0.00 0.00 79 1002.3
20260507142614 11 180 0.0 1.6 0.00 0.00 0.00 85 1002.7
20260507141612 11 157 0.0 0.0 0.00 0.00 0.00 88 1002.7
20260507140114 11 202 0.0 1.6 0.00 0.00 0.00 91 1002.7
20260507135615 10 157 1.6 1.6 0.00 0.00 0.00 91 1003.0
20260507135112 10 270 0.0 0.0 0.00 0.00 0.00 93 1002.7
20260507134612 10 270 0.0 0.0 0.00 0.00 0.00 93 1002.7
20260507134115 10 67 0.0 0.0 0.00 0.00 0.00 93 1002.7
20260507133614 10 180 0.0 0.0 0.00 0.00 0.00 93 1002.7
20260507133112 10 292 0.0 1.6 0.00 0.00 0.00 93 1003.0
20260507132112 9 90 0.0 0.0 0.00 0.00 0.00 93 1003.0
20260507131612 9 135 0.0 1.6 0.00 0.00 0.00 93 1002.7
20260507131112 9 90 0.0 0.0 0.00 0.00 0.00 93 1003.0
20260507130612 8 180 0.0 0.0 0.00 0.00 0.00 93 1003.0
20260507125612 8 157 0.0 1.6 0.00 0.00 0.00 93 1003.3
20260507125112 8 202 0.0 0.0 0.00 0.00 0.00 93 1003.3
20260507124612 8 135 0.0 0.0 0.00 0.00 0.00 93 1003.3
20260507124112 8 270 0.0 0.0 0.00 0.00 0.00 93 1003.3
20260507123112 8 45 0.0 0.0 0.00 0.00 0.00 93 1003.0
20260507122612 8 112 0.0 0.0 0.00 0.00 0.00 93 1003.0
20260507121612 8 247 0.0 0.0 0.00 0.00 0.00 93 1003.0
20260507121114 8 247 0.0 0.0 0.00 0.00 0.00 93 1003.0
20260507120112 8 247 0.0 0.0 0.00 0.00 0.00 93 1003.0
20260507115612 8 135 0.0 0.0 0.00 0.00 0.00 93 1003.0
20260507114613 8 135 0.0 0.0 0.00 0.00 0.00 93 1003.0
20260507113612 8 90 0.0 0.0 0.00 0.00 0.00 93 1003.0
20260507113112 8 90 0.0 0.0 0.00 0.00 0.00 93 1003.0
20260507112612 8 90 0.0 0.0 0.00 0.00 0.00 93 1003.0
20260507111614 8 90 0.0 0.0 0.00 0.00 0.00 93 1003.0
20260507111112 8 90 0.0 0.0 0.00 0.00 0.00 93 1003.3
20260507110612 8 90 0.0 0.0 0.00 0.00 0.00 93 1003.3
20260507110112 8 90 0.0 0.0 0.00 0.00 0.00 93 1003.3
20260507104112 7 90 0.0 0.0 0.00 0.00 0.00 93 1003.3
20260507103613 7 90 0.0 0.0 0.00 0.00 0.00 93 1003.3
20260507103112 7 90 0.0 0.0 0.00 0.00 0.00 93 1003.7
20260507101112 7 90 0.0 0.0 0.00 0.00 0.00 93 1003.3
20260507095614 7 90 0.0 0.0 0.00 0.00 0.00 93 1003.0
20260507095113 7 90 0.0 0.0 0.00 0.00 0.00 93 1002.7
20260507094612 7 90 0.0 0.0 0.00 0.00 0.00 93 1002.7
20260507094112 7 112 0.0 0.0 0.00 0.00 0.00 93 1003.0
20260507093114 7 112 0.0 0.0 0.00 0.00 0.00 93 1002.7
20260507090613 8 337 0.0 0.0 0.00 0.00 0.00 93 1002.7
20260507090113 8 45 0.0 0.0 0.00 0.00 0.00 93 1002.7
20260507085616 8 270 0.0 0.0 0.00 0.00 0.00 93 1002.7
20260507084112 8 247 0.0 0.0 0.00 0.00 0.00 93 1002.7
20260507083613 8 157 0.0 0.0 0.00 0.00 0.00 93 1002.7
20260507083112 8 157 0.0 0.0 0.00 0.00 0.00 93 1002.3
20260507082613 8 157 0.0 0.0 0.00 0.00 0.00 93 1002.0
20260507082113 8 112 0.0 0.0 0.00 0.00 0.00 93 1002.3
20260507081115 8 135 0.0 0.0 0.00 0.00 0.00 93 1002.7
20260507075612 8 67 0.0 0.0 0.00 0.00 0.00 93 1002.3
20260507075113 9 67 0.0 0.0 0.00 0.00 0.00 93 1002.0
20260507074612 9 67 0.0 0.0 0.00 0.00 0.00 92 1002.3
20260507073612 9 67 0.0 0.0 0.00 0.00 0.00 92 1002.3
20260507072112 9 112 0.0 0.0 0.00 0.00 0.00 92 1002.0
20260507071616 9 135 0.0 0.0 0.00 0.00 0.00 92 1002.0
20260507071113 9 135 0.0 0.0 0.00 0.00 0.00 92 1001.6
20260507070617 9 135 0.0 0.0 0.00 0.00 0.00 92 1001.6
20260507070116 9 135 0.0 0.0 0.00 0.00 0.00 92 1002.0
20260507065113 9 90 0.0 0.0 0.00 0.00 0.00 92 1001.6
20260507064612 10 90 0.0 0.0 0.00 0.00 0.00 92 1001.6
20260507063115 10 135 0.0 0.0 0.00 0.00 0.00 93 1001.6
20260507062113 10 225 0.0 0.0 0.00 0.00 0.00 93 1001.3
20260507061616 10 22 0.0 0.0 0.00 0.00 0.00 93 1001.6
20260507060613 10 157 0.0 0.0 0.00 0.00 0.00 93 1001.6
20260507060115 10 225 0.0 0.0 0.00 0.00 0.00 93 1001.3
20260507053616 10 112 0.0 0.0 0.00 0.00 0.00 93 1001.3
20260507052113 10 67 0.0 0.0 0.00 0.00 0.00 93 1001.3
20260507044613 10 90 0.0 0.0 0.00 0.00 0.00 93 1001.0
20260507043113 10 180 0.0 0.0 0.00 0.00 0.00 93 1001.3
20260507041613 9 157 0.0 0.0 0.00 0.00 0.00 92 1001.0
20260507041113 9 225 0.0 3.2 0.00 0.00 0.00 92 1000.6
20260507040613 9 180 1.6 3.2 0.00 0.00 0.00 92 1000.6